Voltar ao catálogo

KUIPER-00094

AtivoComunicaçõesLEO
NORAD 64839·PAYLOAD·🇺🇸 United States

Lançado Jul 16, 2025 de Cape Canaveral Space Force Station

Loading…

Próximas Passagens (próximas 24 horas)

TLE

AtualizadoSource: CelesTrak SupGP

Época: Sep 15, 2026, 04:23 UTC

1 64839C 25151Z   26258.18331019  .00005077  00000+0  66467-3 0  2581
2 64839  51.9019 130.2505 0001179  95.9120 153.1688 14.79923100    16

Acompanhe KUIPER-00094 em tempo real com AllMySat

Download on the App Store